[[{"header":{"parameterUnit":"m.s-1","parameterCategory":1,"la1":30.2992,"la2":30.254,"lo1":-89.0895,"lo2":-89.0443,"dy":0.0025,"dx":0.0025,"nx":19,"ny":19,"refTime":"2026-03-21T21:00:00:Z","depth":0,"parameterNumber":2,"parameterNumberName":"U-component_of_WINDS"},"data":[0,0,0,2.0779,2.0783,2.1008,2.1009,2.1288,2.1291,0,0,0,0,0,0,0,0,0,0,0,2.0703,2.0704,2.0778,2.0784,2.1008,2.1009,2.1288,2.1291,0,0,0,0,0,0,0,0,0,0,0,2.0702,2.0704,2.0706,2.0784,2.1008,2.101,2.1287,2.1121,0,0,0,0,0,0,0,0,0,0,2.0905,2.0825,2.0704,2.0706,2.0786,2.1008,2.101,2.1114,2.1132,2.1181,0,2.122,0,2.1259,2.1308,2.1309,0,0,0,2.0791,2.081,2.0878,2.0706,2.0788,2.1008,2.0909,2.1124,2.1144,2.1205,2.1224,2.1235,2.1264,2.131,2.1311,2.1566,2.1567,0,0,2.0779,2.0739,2.0864,2.0891,2.0852,2.0902,2.0916,2.1136,2.1155,2.1225,2.1241,2.1269,2.1312,2.1314,2.1565,2.1566,0,0,0,2.0738,2.073,2.0794,2.0879,2.092,2.0908,2.0924,2.1146,2.117,2.1245,2.1272,2.1313,2.1317,2.1564,2.1565,2.1568,0,0,0,2.0731,2.0706,2.0788,2.0766,2.0916,2.1035,2.0928,2.1154,2.118,2.127,2.1313,2.1319,2.1563,2.1565,2.1566,2.1575,0,0,0,2.0692,2.0702,2.0731,2.0763,2.0858,2.1032,2.1069,2.1161,2.1197,2.1309,2.132,2.1563,2.1565,2.1564,2.1573,2.1632,0,0,0,2.0639,2.073,2.073,2.0844,2.0856,2.1031,2.1068,2.1201,2.1298,2.1315,2.1563,2.1565,2.1563,2.1571,2.1629,2.1673,2.1688,0,0,2.0732,2.074,2.081,2.0817,2.0981,2.1,2.1167,2.1294,2.1342,2.149,2.1496,2.1566,2.1572,2.1631,2.1783,2.1794,0,0,0,2.0826,2.0876,2.0928,2.1017,2.1116,2.1202,2.1308,2.1356,2.1483,2.1408,2.1605,2.161,2.1646,2.1669,2.1678,2.1713,2.1574,2.1574,2.1574,2.09,2.0957,2.1077,2.1161,2.1248,2.1357,2.1434,2.1518,2.1549,2.1595,2.1639,2.1724,2.175,2.1757,2.1792,2.1667,2.1667,2.1667,2.1667,2.1043,2.1123,2.1164,2.1295,2.1356,2.1468,2.1579,2.1598,2.1714,2.1695,2.173,2.1704,2.1767,2.1801,2.1668,2.1668,2.1668,2.1668,2.1668,2.1097,2.1146,2.1202,2.1339,2.1439,2.1523,2.1632,2.1684,2.1734,2.1768,2.1821,2.1822,2.1829,2.179,2.179,2.179,2.1791,2.1791,2.1791,2.1131,2.1195,2.1279,2.1393,2.1459,2.1553,2.1666,2.1734,2.1822,2.1852,2.1853,2.1881,2.1762,2.1732,2.1796,2.1795,2.1795,2.1794,2.1794,2.1254,2.1235,2.1365,2.1431,2.1572,2.1669,2.1735,2.1869,2.1932,2.1985,2.2008,2.1911,2.1924,2.1917,2.1892,2.1994,2.1994,2.1994,2.1994,2.13,2.1311,2.1457,2.156,2.1667,2.174,2.189,2.1981,2.2072,2.2116,2.211,2.2081,2.2071,2.209,2.2079,2.2056,2.2198,2.2198,2.2199,2.1379,2.1404,2.1518,2.1606,2.1721,2.182,2.1963,2.2082,2.2183,2.2208,2.2152,2.2144,2.2098,2.208,2.2102,2.2084,2.2044,0,0]},{"header":{"parameterUnit":"m.s-1","parameterCategory":1,"la1":30.2992,"la2":30.254,"lo1":-89.0895,"lo2":-89.0443,"dy":0.0025,"dx":0.0025,"nx":19,"ny":19,"refTime":"2026-03-21T21:00:00:Z","depth":0,"parameterNumber":3,"parameterNumberName":"V-component_of_WINDS"},"data":[0,0,0,4.4205,4.4209,4.4386,4.4387,4.4597,4.4598,0,0,0,0,0,0,0,0,0,0,0,4.4144,4.4145,4.4205,4.4209,4.4386,4.4387,4.4596,4.4598,0,0,0,0,0,0,0,0,0,0,0,4.4143,4.4145,4.4146,4.421,4.4386,4.4387,4.4596,4.4468,0,0,0,0,0,0,0,0,0,0,4.4298,4.4233,4.4144,4.4146,4.4211,4.4386,4.4387,4.4462,4.4476,4.451,0,4.4539,0,4.4572,4.4612,4.4612,0,0,0,4.4215,4.4222,4.4278,4.4146,4.4212,4.4386,4.4308,4.447,4.4486,4.4528,4.4542,4.4551,4.4576,4.4613,4.4614,4.4799,4.4799,0,0,4.4205,4.417,4.4267,4.4288,4.4262,4.4302,4.4313,4.448,4.4492,4.4543,4.4556,4.4579,4.4614,4.4616,4.4798,4.4799,0,0,0,4.4173,4.4163,4.4216,4.4279,4.4312,4.4307,4.432,4.4484,4.4505,4.4558,4.4582,4.4615,4.4618,4.4798,4.4798,4.4797,0,0,0,4.4167,4.4144,4.4211,4.4191,4.4309,4.4401,4.4321,4.4493,4.4513,4.4581,4.4615,4.462,4.4797,4.4798,4.4796,4.4802,0,0,0,4.4135,4.4141,4.4164,4.4189,4.4265,4.4399,4.4429,4.4498,4.4527,4.4612,4.462,4.4796,4.4798,4.4795,4.48,4.4843,0,0,0,4.409,4.4156,4.4163,4.4247,4.4263,4.4397,4.4428,4.4529,4.4602,4.4616,4.4797,4.4798,4.4794,4.4799,4.4842,4.4874,4.4884,0,0,4.4154,4.4162,4.4215,4.4227,4.4352,4.4373,4.4498,4.4595,4.4632,4.4741,4.4746,4.4796,4.48,4.4843,4.495,4.4958,0,0,0,4.4224,4.4261,4.4302,4.4372,4.4451,4.4519,4.4602,4.4639,4.4734,4.4682,4.4824,4.4827,4.4853,4.4871,4.4877,4.4904,4.4804,4.4804,4.4804,4.4263,4.4313,4.4404,4.4476,4.4543,4.4631,4.469,4.4755,4.478,4.4813,4.4845,4.4905,4.4924,4.4929,4.4956,4.4865,4.4865,4.4866,4.4866,4.4364,4.4426,4.4464,4.4567,4.4618,4.4704,4.4792,4.4808,4.4895,4.4883,4.4909,4.4893,4.4936,4.4962,4.4866,4.4866,4.4866,4.4866,4.4866,4.4396,4.4435,4.4482,4.4592,4.4671,4.474,4.4825,4.4867,4.4907,4.4933,4.4974,4.4974,4.4981,4.4949,4.4949,4.495,4.495,4.495,4.495,4.4412,4.4465,4.4532,4.4626,4.4679,4.4755,4.4846,4.4899,4.4969,4.4993,4.4993,4.5018,4.4931,4.491,4.4954,4.4953,4.4952,4.4952,4.4952,4.4497,4.4487,4.459,4.4644,4.476,4.4837,4.4892,4.4997,4.5047,4.5088,4.5108,4.5037,4.5047,4.5042,4.5025,4.5096,4.5096,4.5096,4.5096,4.4526,4.4537,4.4656,4.474,4.4827,4.4889,4.5005,4.5079,4.5151,4.5186,4.5182,4.5162,4.5155,4.517,4.5162,4.5147,4.5247,4.5247,4.5247,4.4583,4.4605,4.4696,4.4772,4.4867,4.4947,4.5059,4.5154,4.5234,4.5254,4.5214,4.5208,4.5176,4.5163,4.5182,4.5169,4.5141,0,0]}]]